The Internet Pinball Serial Number Database or IPSND collects serial numbers of pinball machines and publishes a database of these on the Internet. Our goal is to make available a registration of all pinball machines in existence and allow tools for slicing, dicing and visualization of the data.

Games: 6,217  Serials: 49,572  Visitors: 27,834,326  Members: 3,704  Photos: 26,581  Lat/Lng: 24,883  Masks: 49,572(797.36 %)  Traits: 503  Nudges: 135,271  Backglasses: 1,862
  Most Serials: Twilight Zone(1,033)  Most Submissions: Rod McLarge(3,264)  Most Points: Rod McLarge(27,988)  Highest Quality: Jim Butler(9.15)  Most Nudges: King of Pinball(18,092)
Submitter: Fun House
Member Since: Thursday, September 22, 2016
Submissions: 2,256 (4th)
SerialBot: 18,373 Points Total (4th), 7.20 Average Score (3,014th)
Nudges: 2,139(17th)
DateGameSerialNumberGame PartSerialBotDetails
 Item 1 to 100 of 2256
Page:of 23 Page size:
2/22/2019 The Addams Family 20017591812 Other Parts 20017591812
2/20/2019 Diner 571421689 Other Parts 571421689
2/19/2019 No Fear: Dangerous Sports 51425103914 Other Parts 51425103914
2/19/2019 Cactus Canyon 50466400494 Complete Game 50466400494
2/19/2019 The Champion Pub 50263400949 Complete Game 50263400949
2/19/2019 No Fear: Dangerous Sports 51425102508 Other Parts 51425102508
2/19/2019 Red & Ted's Road Show 50424100593 Complete Game 50424100593
2/19/2019 Creature from the Black Lagoon 20218009791 Other Parts 20218009791
2/19/2019 Dirty Harry 52230111026 Complete Game 52230111026
2/19/2019 Dirty Harry 51430113171 Complete Game 51430113171
2/19/2019 Twilight Zone 50720165691 Other Parts 50720165691
2/19/2019 Creature from the Black Lagoon 20718923480 Complete Game 20718923480
2/19/2019 Terminator 2: Judgment Day 50013I778725 Other Parts 50013I778725
2/19/2019 Creature from the Black Lagoon 21418933780 Complete Game 21418933780
2/19/2019 Indiana Jones: The Pinball Adventure 51417169722 Other Parts 51417169722
2/19/2019 White Water 52218919830 Complete Game 52218919830
2/19/2019 Indiana Jones: The Pinball Adventure 52517272231 Other Parts 52517272231
2/19/2019 Bram Stoker's Dracula 51001053811 Other Parts 51001053811
2/19/2019 Twilight Zone 52520112332 Complete Game 52520112332
2/19/2019 Indiana Jones: The Pinball Adventure 51417172352 Complete Game 51417172352
2/17/2019 Red & Ted's Road Show 50224100353 Other Parts 50224100353
2/17/2019 Batman (66 Premium) 286626 Complete Game 286626
2/17/2019 Silverball Mania ESM5911 Complete Game ESM5911
2/17/2019 Red & Ted's Road Show 51524105402 Complete Game 51524105402
2/17/2019 Monopoly™ 160501 Complete Game 160501
2/17/2019 The Addams Family 20017590662 Complete Game 20017590662
2/16/2019 The Walking Dead (Premium) 270809 Complete Game 270809
2/12/2019 Terminator 2: Judgment Day 50013971288 Complete Game 50013971288
2/11/2019 The Getaway: High Speed II 50004I858021 Complete Game 50004I858021
2/11/2019 The Getaway: High Speed II 50004I096880 Other Parts 50004I096880
2/10/2019 Disney TRON Legacy 231521 Complete Game 231521
2/10/2019 Revenge From Mars 50270103616 Complete Game 50270103616
2/9/2019 Road Kings 542I46921 Complete Game 542I46921
2/9/2019 Corvette 50436100137 Other Parts 50436100137
2/9/2019 The Shadow 52232101413 Complete Game 52232101413
2/9/2019 Aerosmith (Pro) 275960 Complete Game 275960
2/3/2019 F124230 Other Parts F124230
2/3/2019 F126119 Other Parts F126119
2/3/2019 F124304 Other Parts F124304
2/3/2019 World Cup Soccer 51431103327 Complete Game 51431103327
2/3/2019 The Shadow 52532102723 Other Parts 52532102723
2/3/2019 World Cup Soccer 51031107140 Other Parts 51031107140
2/3/2019 Xenon EXE1968 Other Parts EXE1968
2/3/2019 Ghostbusters (Premium) E263250 Complete Game E263250
2/3/2019 Fire! 556I112189 Complete Game 556I112189
2/3/2019 WHO dunnit 53344102676 Complete Game 53344102676
2/3/2019 The Party Zone 20004I847352 Other Parts 20004I847352
2/3/2019 Twilight Zone 52320160511 Complete Game 52320160511
2/3/2019 Doctor Who 20006I066005 Complete Game 20006I066005
2/3/2019 Diner 571I425797 Complete Game 571I425797
2/3/2019 Laser Cue 520I07898 Other Parts 520I07898
2/3/2019 Sorcerer 532I20795 Other Parts 532I20795
2/3/2019 F-14 Tomcat 554I102842 Other Parts 554I102842
2/2/2019 Popeye Saves the Earth 53322350512 Other Parts 53322350512
2/2/2019 Legends of Wrestlemania (Limited Edition) E252231 Complete Game E252231
2/2/2019 24™ E222510 Complete Game E222510
2/2/2019 Indiana Jones: The Pinball Adventure 51017332031 Complete Game 51017332031
2/2/2019 Popeye Saves the Earth 51422310592 Other Parts 51422310592
2/2/2019 Judge Dredd 21420096632 Other Parts 21420096632
2/2/2019 Demolition Man 53328548191 Other Parts 53328548191
2/2/2019 Demolition Man 50428473011 Other Parts 50428473011
2/2/2019 Hollywood Heat 5186 Complete Game 5186
1/27/2019 Fire! 556I109544 Other Parts 556I109544
1/27/2019 The Simpsons Pinball Party 224474 Complete Game 224474
1/27/2019 Medieval Madness 50459100018 Complete Game 50459100018
1/27/2019 Tales of the Arabian Nights 50447300021 Complete Game 50447300021
1/26/2019 Star Trek: The Next Generation 51323403561 Other Parts 51323403561
1/26/2019 Star Trek: The Next Generation 50223493922 Other Parts 50223493922
1/26/2019 Attack from Mars 51341101216 Other Parts 51341101216
1/26/2019 Medieval Madness 50259201113 Other Parts 50259201113
1/26/2019 Twilight Zone X970000 Complete Game X970000
1/21/2019 The Sopranos® 190812 Complete Game 190812
1/20/2019 Teenage Mutant Ninja Turtles 40189 Complete Game 40189
1/20/2019 Skateball ESB4529 Other Parts ESB4529
1/20/2019 F-14 Tomcat 554I00104 Complete Game 554I00104
1/19/2019 Junk Yard 51352100826 Other Parts 51352100826
1/19/2019 The Sopranos® E190983 Complete Game E190983
1/19/2019 Robot F133671 Complete Game F133671
1/19/2019 Taxi 553162300 Other Parts 553162300
1/19/2019 World Cup Soccer 53331107273 Other Parts 53331107273
1/11/2019 Attack From Mars (Remake Special Edition) AFM3156 Complete Game AFM3156
1/8/2019 Harlem Globetrotters On Tour EGT9277 Complete Game EGT9277
1/7/2019 Twilight Zone 52720113461 Complete Game 52720113461
1/6/2019 X-Men (Pro) E237020 Complete Game E237020
1/5/2019 World Cup Soccer 52831100938 Other Parts 52831100938
1/4/2019 Mr. & Mrs. Pac-Man Pinball EPM9383 Complete Game EPM9383
1/4/2019 Star Wars Episode I 50269100463 Complete Game 50269100463
1/4/2019 Twilight Zone 52820063091 Other Parts 52820063091
1/4/2019 Dirty Harry 50230110343 Other Parts 50230110343
1/4/2019 The Flintstones 50229100476 Other Parts 50229100476
1/4/2019 RollerCoaster Tycoon 168997 Complete Game 168997
1/3/2019 Safe Cracker 93303100195 Complete Game 93303100195
1/3/2019 Theatre of Magic 53339104168 Complete Game 53339104168
1/2/2019 The Addams Family 20017I597934 Complete Game 20017I597934
1/1/2019 Taxi 553I165631 Complete Game 553I165631
1/1/2019 Whirlwind 574I338967 Other Parts 574I338967
1/1/2019 Red & Ted's Road Show 53324105833 Other Parts 53324105833
1/1/2019 The Getaway: High Speed II 50004I095547 Other Parts 50004I095547
1/1/2019 76560 Other Parts 76560
1/1/2019 Attack from Mars 53341102320 Other Parts 53341102320

Supported Browsers
Back 5 | Random | Forward 5 | List ]